Regional Weather Roundup
Issued by NWS

Home | Current Version | Previous Version | Text Only | Print | Product List | Glossary On
Versions: 1 2 3 4 5 6 7 8 9 10 11 12 13 14 15 16 17 18 19 20 21 22 23 24 25 26 27 28 29 30 31 32 33 34 35 36 37 38 39 40 41 42 43 44 45 46 47 48 49 50
000
ASUS44 KJAN 270610
RWRMS

MISSISSIPPI HOURLY WEATHER ROUNDUP
NATIONAL WEATHER SERVICE JACKSON MS
1200 AM CST TUE JAN 27 2015

NOTE: "FAIR: INDICATES FEW OR NO CLOUDS BELOW 12,000 FEET WITH NO
SIGNIFICANT WEATHER AND/OR OBSTRUCTIONS TO VISIBILITY.

MSZ001>002-007>008-010>013-018>021-025>028-034>036-270700-
NORTHWEST MISSISSIPPI

CITY           SKY/WX    TMP DP  RH WIND       PRES   REMARKS
CLARKSDALE     FAIR      45  37  76 W6        29.99S
CLEVELAND      FAIR      45  38  78 W7        30.00R
GREENWOOD      CLEAR     38  34  85 S8        29.99F WCI  32
6HR MIN TEMP:  37; 6HR MAX TEMP:  46;

GREENVILLE     CLEAR     49  36  61 W15       30.00F
6HR MIN TEMP:  43; 6HR MAX TEMP:  49;

GRENADA        FAIR      41  36  81 W3        29.99R
OLIVE BRANCH   CLEAR     36  36 100 SW6       29.95F WCI  31
OXFORD         FAIR      32  30  93 CALM      29.97F
TUNICA         CLEAR     43  34  70 W6        29.97F
$$

MSZ003>006-009-014>017-022>024-029>033-037>039-270700-
NORTHEAST MISSISSIPPI

CITY           SKY/WX    TMP DP  RH WIND       PRES   REMARKS
COLUMBUS AFB   CLEAR     33  30  89 SE5       29.98F WCI  28
6HR MIN TEMP:  30; 6HR MAX TEMP:  42;

CORINTH        FAIR      32  28  86 CALM      29.94S
GOLDN TRIANGLE CLEAR     37  30  75 S3        29.97F
STARKVILLE     FAIR      32  32 100 CALM      29.98F
TUPELO         CLEAR     35  31  85 SW5       29.96F WCI  31
6HR MIN TEMP:  34; 6HR MAX TEMP:  46;

$$

MSZ040-058-270700-
CENTRAL MISSISSIPPI

CITY           SKY/WX    TMP DP  RH WIND       PRES   REMARKS
JACKSON INTL   CLEAR     44  34  67 S3        30.03F
6HR MIN TEMP:  41; 6HR MAX TEMP:  49;

JACKSON HAWKNS CLEAR     46  34  62 W8        30.03F
6HR MIN TEMP:  45; 6HR MAX TEMP:  50;

MERIDIAN KEY   CLEAR     33  31  92 S6        30.02F WCI  28
6HR MIN TEMP:  33; 6HR MAX TEMP:  44;

MERIDIAN NAS   CLEAR     40  32  73 W6        30.01F
6HR MIN TEMP:  35; 6HR MAX TEMP:  47;

RAYMOND        FAIR      36  32  87 MISG      30.04S
VICKSBURG      CLEAR     42  35  76 CALM      30.05F
6HR MIN TEMP:  39; 6HR MAX TEMP:  50;

$$

MSZ059>079-270700-
SOUTH MISSISSIPPI

CITY           SKY/WX    TMP DP  RH WIND       PRES   REMARKS
BROOKHAVEN     FAIR      46  37  71 SW7       30.07F
HATTIESBURG    CLEAR     37  34  89 CALM      30.07S
6HR MIN TEMP:  37; 6HR MAX TEMP:  50;

MCCOMB         CLEAR     45  35  68 W6        30.08R
6HR MIN TEMP:  43; 6HR MAX TEMP:  51;

NATCHEZ        CLEAR     43  34  70 SW6       30.08S
6HR MIN TEMP:  41; 6HR MAX TEMP:  50;

PINE BELT      CLEAR     43  32  65 CALM      30.05F
6HR MIN TEMP:  37; 6HR MAX TEMP:  46;

$$

MSZ080>082-270700-
COASTAL MISSISSIPPI

CITY           SKY/WX    TMP DP  RH WIND       PRES   REMARKS
BILOXI         CLEAR     48  39  70 NW7       30.07R
6HR MIN TEMP:  42; 6HR MAX TEMP:  55;

PASCAGOULA     CLEAR     37  35  92 CALM      30.07R
6HR MIN TEMP:  37; 6HR MAX TEMP:  48;

GULFPORT       CLEAR     40  35  83 W3        30.08R
6HR MIN TEMP:  39; 6HR MAX TEMP:  51;

$$


USA.gov is the U.S. government's official web portal to all federal, state and local government web resources and services.